Date String (YYYY-MM-DD hh:mm:ss) UTC,Instrument flags,Ambient pressure (hPa),Sample flow (lpm),Bypass flow (lpm),Sample temperature (°C),Ambient temperature (°C),ASC tube jacket temperature (°C),LED temperature (°C),Box temperature (°C),Sample RH (%),Span deviation,Mass concentration (μg/m³),Mass concentration (μg/m³),Mass concentration (μg/m³)
DateTimeUTC,F1_M11,P_M11,Q1_M11,Q2_M11,T1_M11,T2_M11,T3_M11,T4_M11,T5_M11,U1_M11,ZSPAN_M11,X0_M11,X2_M11,X1_M11
2021-10-07 14:00:00,,0828.3,5.00,0.00,30.6,29.8,00.0,39.7,32.4,14.3,0000.0,0003.40,0002.95,0002.82
2021-10-07 14:01:00,,0828.4,5.01,0.00,30.7,29.8,00.0,39.7,32.3,14.2,0000.0,0003.24,0002.93,0002.81
2021-10-07 14:02:00,,0828.4,4.99,0.00,30.6,28.4,00.0,39.7,32.0,14.2,0000.0,0003.28,0002.91,0002.81
2021-10-07 14:03:00,,0828.3,5.00,0.00,30.4,26.4,00.0,39.6,31.5,14.3,0000.0,0003.38,0002.92,0002.81
2021-10-07 14:04:00,,0828.4,5.00,0.00,30.3,26.1,00.0,39.6,31.4,14.6,0000.0,0003.68,0003.00,0002.82
2021-10-07 14:05:00,,0828.4,5.01,0.00,30.1,26.5,00.0,39.5,31.4,14.6,0000.0,0003.86,0003.05,0002.82
2021-10-07 14:06:00,,0828.4,5.00,0.00,30.1,27.0,00.0,39.4,31.4,14.6,0000.0,0004.02,0003.11,0002.81
2021-10-07 14:07:00,,0828.4,5.01,0.00,30.0,27.4,00.0,39.4,31.5,14.6,0000.0,0004.01,0003.10,0002.80
2021-10-07 14:08:00,,0828.4,5.00,0.00,30.0,27.8,00.0,39.3,31.5,14.6,0000.0,0005.29,0003.10,0002.78
2021-10-07 14:09:00,,0828.5,4.99,0.00,30.0,28.0,00.0,39.3,31.6,14.7,0000.0,0005.76,0003.12,0002.76
2021-10-07 14:10:00,,0828.5,5.00,0.00,30.0,28.3,00.0,39.3,31.6,14.6,0000.0,0006.05,0003.15,0002.76
2021-10-07 14:11:00,,0828.5,4.99,0.00,30.0,28.4,00.0,39.3,31.7,14.5,0000.0,0006.15,0003.15,0002.76
2021-10-07 14:12:00,,0828.5,5.00,0.00,30.0,28.6,00.0,39.3,31.7,14.8,0000.0,0006.59,0003.18,0002.76
2021-10-07 14:13:00,,0828.5,5.01,0.00,30.1,28.7,00.0,39.2,31.8,15.2,0000.0,0007.66,0003.22,0002.74
2021-10-07 14:14:00,,0828.6,5.00,0.00,30.1,28.8,00.0,39.2,31.8,15.9,0000.0,0007.82,0003.25,0002.73
2021-10-07 14:15:00,,0828.6,5.00,0.00,30.1,28.9,00.0,39.2,31.7,16.2,0000.0,0008.50,0003.29,0002.71
2021-10-07 14:16:00,,0828.5,5.00,0.00,30.1,29.0,00.0,39.2,31.8,15.6,0000.0,0009.65,0003.36,0002.69
2021-10-07 14:17:00,,0828.4,5.02,0.00,30.1,29.0,00.0,39.2,31.9,16.4,0000.0,0010.66,0003.48,0002.67
2021-10-07 14:18:00,,0828.4,5.00,0.00,30.1,29.1,00.0,39.2,31.9,14.3,0000.0,0010.94,0003.53,0002.66
2021-10-07 14:19:00,,0828.5,5.00,0.00,30.2,29.1,00.0,39.2,31.9,14.5,0000.0,0010.42,0003.56,0002.65
2021-10-07 14:20:00,,0828.5,4.99,0.00,30.2,29.2,00.0,39.2,31.9,14.3,0000.0,0010.40,0003.61,0002.66
2021-10-07 14:21:00,,0828.5,4.99,0.00,30.2,29.2,00.0,39.3,31.9,15.1,0000.0,0010.51,0003.65,0002.66
2021-10-07 14:22:00,,0828.5,5.01,0.00,30.2,29.3,00.0,39.3,31.9,16.0,0000.0,0011.55,0003.71,0002.63
2021-10-07 14:23:00,,0828.5,5.00,0.00,30.2,29.3,00.0,39.3,32.0,16.5,0000.0,0011.64,0003.71,0002.61
2021-10-07 14:24:00,,0828.6,5.01,0.00,30.2,29.3,00.0,39.3,32.0,15.6,0000.0,0011.22,0003.70,0002.59
2021-10-07 14:25:00,,0828.7,5.02,0.00,30.2,29.4,00.0,39.3,32.0,15.6,0000.0,0011.88,0003.72,0002.58
2021-10-07 14:26:00,,0828.9,5.00,0.00,30.3,29.4,00.0,39.3,32.0,16.9,0000.0,0011.87,0003.71,0002.59
2021-10-07 14:27:00,,0829.1,4.99,0.00,30.3,29.5,00.0,39.3,32.1,16.2,0000.0,0012.06,0003.77,0002.59
2021-10-07 14:28:00,,0829.1,5.00,0.00,30.3,29.5,00.0,39.4,32.1,15.4,0000.0,0011.54,0003.71,0002.59
2021-10-07 14:29:00,,0828.9,5.01,0.00,30.3,29.5,00.0,39.4,32.1,15.4,0000.0,0011.54,0003.74,0002.60
2021-10-07 14:30:00,,0828.9,4.99,0.00,30.4,29.5,00.0,39.4,32.1,15.4,0000.0,0011.99,0003.74,0002.61
2021-10-07 14:31:00,,0828.9,5.00,0.00,30.4,29.6,00.0,39.4,32.1,15.1,0000.0,0012.33,0003.71,0002.59
2021-10-07 14:32:00,,0828.6,5.01,0.00,30.4,29.6,00.0,39.4,32.1,15.9,0000.0,0012.25,0003.68,0002.59
2021-10-07 14:33:00,,0828.8,5.01,0.00,30.4,29.6,00.0,39.4,32.2,17.7,0000.0,0011.92,0003.67,0002.59
2021-10-07 14:34:00,,0829.0,5.00,0.00,30.4,29.7,00.0,39.4,32.2,17.4,0000.0,0012.01,0003.69,0002.59
2021-10-07 14:35:00,,0829.2,5.00,0.00,30.5,29.7,00.0,39.5,32.2,16.6,0000.0,0012.00,0003.75,0002.59
2021-10-07 14:36:00,,0828.9,5.00,0.00,30.5,29.7,00.0,39.5,32.3,15.7,0000.0,0011.43,0003.76,0002.59
2021-10-07 14:37:00,,0828.7,5.00,0.00,30.5,29.7,00.0,39.5,32.3,15.1,0000.0,0010.94,0003.72,0002.58
2021-10-07 14:38:00,,0829.1,4.99,0.00,30.5,29.7,00.0,39.5,32.3,15.3,0000.0,0009.64,0003.61,0002.59
2021-10-07 14:39:00,,0828.9,5.00,0.00,30.5,29.7,00.0,39.5,32.3,16.3,0000.0,0009.70,0003.54,0002.58
2021-10-07 14:40:00,,0828.8,5.00,0.00,30.6,29.8,00.0,39.6,32.4,17.7,0000.0,0010.06,0003.52,0002.56
2021-10-07 14:41:00,,0828.8,5.00,0.00,30.6,29.8,00.0,39.6,32.4,18.4,0000.0,0010.78,0003.54,0002.53
2021-10-07 14:42:00,,0828.7,5.01,0.00,30.6,29.4,00.0,39.6,32.3,18.5,0000.0,0011.26,0003.57,0002.50
2021-10-07 14:43:00,,0828.9,4.99,0.00,30.5,27.3,00.0,39.6,31.8,18.6,0000.0,0011.83,0003.61,0002.48
2021-10-07 14:44:00,,0828.9,4.99,0.00,30.3,26.2,00.0,39.5,31.5,18.9,0000.0,0012.04,0003.61,0002.47
2021-10-07 14:45:00,,0828.8,5.00,0.00,30.2,26.4,00.0,39.5,31.5,18.8,0000.0,0012.89,0003.62,0002.45
2021-10-07 14:46:00,,0828.9,5.01,0.00,30.1,26.9,00.0,39.4,31.5,18.7,0000.0,0013.15,0003.58,0002.44
2021-10-07 14:47:00,,0829.1,4.99,0.00,30.0,27.3,00.0,39.4,31.5,18.6,0000.0,0013.92,0003.59,0002.42
2021-10-07 14:48:00,,0829.1,5.00,0.00,30.0,27.7,00.0,39.3,31.6,17.8,0000.0,0014.61,0003.60,0002.41
2021-10-07 14:49:00,,0829.0,5.01,0.00,30.0,28.0,00.0,39.3,31.6,17.1,0000.0,0015.27,0003.58,0002.40
2021-10-07 14:50:00,,0829.0,4.99,0.00,30.0,28.3,00.0,39.3,31.7,18.8,0000.0,0015.81,0003.61,0002.41
2021-10-07 14:51:00,,0829.0,4.99,0.00,30.0,28.5,00.0,39.3,31.7,19.1,0000.0,0015.94,0003.62,0002.41
2021-10-07 14:52:00,,0829.1,5.01,0.00,30.1,28.6,00.0,39.2,31.7,18.7,0000.0,0015.90,0003.65,0002.44
2021-10-07 14:53:00,,0829.1,4.99,0.00,30.1,28.8,00.0,39.2,31.8,17.8,0000.0,0015.16,0003.60,0002.46
2021-10-07 14:54:00,,0828.8,5.00,0.00,30.1,28.9,00.0,39.2,31.8,17.2,0000.0,0014.87,0003.59,0002.48
2021-10-07 14:55:00,,0829.1,5.00,0.00,30.1,28.9,00.0,39.2,31.8,15.4,0000.0,0014.53,0003.56,0002.51
2021-10-07 14:56:00,,0829.0,5.00,0.00,30.1,29.0,00.0,39.2,31.9,15.8,0000.0,0013.60,0003.53,0002.55
2021-10-07 14:57:00,,0828.9,5.01,0.00,30.2,29.1,00.0,39.2,31.9,16.6,0000.0,0013.16,0003.50,0002.56
2021-10-07 14:58:00,,0829.1,4.98,0.00,30.2,29.2,00.0,39.3,31.9,16.3,0000.0,0012.16,0003.43,0002.57
2021-10-07 14:59:00,,0829.1,5.01,0.00,30.2,29.2,00.0,39.3,32.0,18.2,0000.0,0011.45,0003.45,0002.58
